Pintail — WDF5177 — position and weather

sailwx.info

Track history (hours):
 
Tides and Currents Weather Stations Pressure Air Temp Water Temp Dewpoint Dewpoint Depression Visibility Wind Speed Wind Dir Waves Ship Positions

Pintail

Owner: Pintail Marine Services, Inc, Friday Harbor, WA. More information available from US FCC via Universal Licensing System and Coast Guard Vessel Documentation Center.

Last reported at 2014-Oct-25 23:31 UTC. Time now 2014-Oct-26 00:24 UTC.
Position N 48°32' W 122°60'.

Length 19 m.

Type: Towing. MMSI: 367460260.

Date/timePositionNaut miles runAvg speedWind from/ knotsBaromVisibWave heightAir tempDewpointWater temp
2014-Oct-25 23:31N 48°32' W 122°60'0 0.0
2014-Oct-25 22:31N 48°32' W 122°60'0 0.0
2014-Oct-25 21:31N 48°32' W 122°60'0 0.0
2014-Oct-25 20:31N 48°32' W 122°60'0 0.0
2014-Oct-25 19:31N 48°32' W 122°60'0 0.0
2014-Oct-25 18:31N 48°32' W 122°60'0 0.0
2014-Oct-25 17:31N 48°32' W 122°60'0 0.0
2014-Oct-25 16:31N 48°32' W 122°60'0 0.0
2014-Oct-25 15:31N 48°32' W 122°60'0 0.0
2014-Oct-25 14:31N 48°32' W 122°60'0 0.0
2014-Oct-25 13:31N 48°32' W 122°60'0 0.0
2014-Oct-25 12:28N 48°32' W 122°60'0 0.0
2014-Oct-25 11:31N 48°32' W 122°60'0 0.0
2014-Oct-25 10:31N 48°32' W 122°60'0 0.0
2014-Oct-25 09:31N 48°32' W 122°60'0 0.0
2014-Oct-25 08:31N 48°32' W 122°60'0 0.0
2014-Oct-25 07:31N 48°32' W 122°60'0 0.0
2014-Oct-25 06:31N 48°32' W 122°60'0 0.0
2014-Oct-25 05:31N 48°32' W 122°60'0 0.0
2014-Oct-25 04:28N 48°32' W 122°60'0 0.0
2014-Oct-25 03:31N 48°32' W 122°60'0 0.0
2014-Oct-25 02:28N 48°32' W 122°60'0 0.0
2014-Oct-25 01:31N 48°32' W 122°60'0 0.0
2014-Oct-25 00:31N 48°32' W 122°60'0 0.0
2014-Oct-24 23:31N 48°32' W 122°60'0 0.0
2014-Oct-24 22:31N 48°32' W 122°60'0 0.0
2014-Oct-24 21:31N 48°32' W 122°60'0 0.0
2014-Oct-24 20:31N 48°32' W 122°60'0 0.0
2014-Oct-24 19:31N 48°32' W 122°60'0 0.0
2014-Oct-24 18:31N 48°32' W 122°60'0 0.0
2014-Oct-24 17:31N 48°32' W 122°60'0 0.0
2014-Oct-24 16:31N 48°32' W 122°60'0 0.0
2014-Oct-24 15:31N 48°32' W 122°60'0 0.0
2014-Oct-24 14:31N 48°32' W 122°60'0 0.0
2014-Oct-24 13:33N 48°32' W 122°60'0 0.0
2014-Oct-24 12:33N 48°32' W 122°60'0 0.0
2014-Oct-24 11:33N 48°32' W 122°60'0 0.0
2014-Oct-24 10:33N 48°32' W 122°60'0 0.0
2014-Oct-24 09:33N 48°32' W 122°60'0 0.0
2014-Oct-24 08:34N 48°32' W 122°60'0 0.0
2014-Oct-24 07:25N 48°32' W 122°60'0 0.0
2014-Oct-24 06:33N 48°32' W 122°60'0 0.0
2014-Oct-24 05:33N 48°32' W 122°60'0 0.0
2014-Oct-24 04:33N 48°32' W 122°60'0 0.0
2014-Oct-24 03:33N 48°32' W 122°60'0 0.0
2014-Oct-24 02:33N 48°32' W 122°60'0 0.0
2014-Oct-24 01:33N 48°32' W 122°60'0 0.0
2014-Oct-24 00:33N 48°32' W 122°60'0 0.0
2014-Oct-23 23:33N 48°32' W 122°60'0 0.4
2014-Oct-23 22:31N 48°32' W 123°00'0 0.0
2014-Oct-23 21:31N 48°32' W 123°00'2 2.2
2014-Oct-23 20:33N 48°33' W 122°57'5 4.9
2014-Oct-23 19:32N 48°32' W 122°50'7 5.5
2014-Oct-23 18:12N 48°31' W 122°39'2 2.5
2014-Oct-23 17:31N 48°31' W 122°36'4 3.8
2014-Oct-23 16:28N 48°31' W 122°42'5 5.9
2014-Oct-23 15:32N 48°33' W 122°50'12 0.7
2014-Oct-22 22:04N 48°37' W 123°06'2 3.9
2014-Oct-22 21:32N 48°36' W 123°09'0 0.3
2014-Oct-22 20:33N 48°37' W 123°09'0 0.2
2014-Oct-22 19:33N 48°37' W 123°10'0 0.0
2014-Oct-22 18:33N 48°37' W 123°10'0 0.5
2014-Oct-22 17:31N 48°36' W 123°09'0 0.0
2014-Oct-22 16:33N 48°36' W 123°09'3 2.7
2014-Oct-22 15:30N 48°36' W 123°05'6 1.0
2014-Oct-22 09:31N 48°32' W 122°60'0 0.0
2014-Oct-22 08:31N 48°32' W 122°60'0 0.0
2014-Oct-22 07:31N 48°32' W 122°60'0 0.0
2014-Oct-22 06:31N 48°32' W 122°60'0 0.0
2014-Oct-22 05:32N 48°32' W 122°60'0 0.0
2014-Oct-22 04:32N 48°32' W 122°60'0 0.0
2014-Oct-22 03:32N 48°32' W 122°60'0 0.0
2014-Oct-22 02:32N 48°32' W 122°60'0 0.0
2014-Oct-22 01:32N 48°32' W 122°60'0 0.1
2014-Oct-22 00:31N 48°32' W 123°00'3 3.4
2014-Oct-21 23:33N 48°35' W 123°02'5 5.2
2014-Oct-21 22:32N 48°40' W 123°02'8 1.6
2014-Oct-21 17:33N 48°32' W 122°60'1 0.6
2014-Oct-21 16:32N 48°32' W 123°00'1 0.5
2014-Oct-21 15:33N 48°32' W 123°00'0 0.4
2014-Oct-21 14:28N 48°32' W 122°60'0 0.0
2014-Oct-21 13:28N 48°32' W 122°60'0 0.0
2014-Oct-21 12:28N 48°32' W 122°60'0 0.0
2014-Oct-21 11:28N 48°32' W 122°60'0 0.0
2014-Oct-21 10:31N 48°32' W 122°60'0 0.0
2014-Oct-21 09:31N 48°32' W 122°60'0 0.0
2014-Oct-21 08:31N 48°32' W 122°60'0 0.0
2014-Oct-21 07:31N 48°32' W 122°60'0 0.0
2014-Oct-21 06:31N 48°32' W 122°60'0 0.0
2014-Oct-21 05:31N 48°32' W 122°60'0 0.0
2014-Oct-21 04:31N 48°32' W 122°60'0 0.0
2014-Oct-21 03:28N 48°32' W 122°60'0 0.0
2014-Oct-21 02:31N 48°32' W 122°60'0 0.0
2014-Oct-21 01:28N 48°32' W 122°60'0 0.0
2014-Oct-21 00:31N 48°32' W 122°60'0 0.0
2014-Oct-20 23:31N 48°32' W 122°60'0 0.0
2014-Oct-20 22:33N 48°32' W 122°60'0 0.1
2014-Oct-20 21:34N 48°32' W 123°00'0 0.2
2014-Oct-20 20:33N 48°32' W 122°60'4 4.1
2014-Oct-20 19:33N 48°33' W 122°54'6 5.5
2014-Oct-20 18:33N 48°31' W 122°47'3 1.3
2014-Oct-20 16:17N 48°32' W 122°42'5 6.1
2014-Oct-20 15:31N 48°32' W 122°49'4 4.1
2014-Oct-20 14:33N 48°34' W 122°55'4 3.8
2014-Oct-20 13:31N 48°32' W 122°60'0 0.0
2014-Oct-20 12:31N 48°32' W 122°60'0 0.0
2014-Oct-20 11:31N 48°32' W 122°60'0 0.0
2014-Oct-20 10:31N 48°32' W 122°60'0 0.0
2014-Oct-20 09:31N 48°32' W 122°60'0 0.0
2014-Oct-20 08:31N 48°32' W 122°60'0 0.0
2014-Oct-20 07:31N 48°32' W 122°60'0 0.0
2014-Oct-20 06:31N 48°32' W 122°60'0 0.0
2014-Oct-20 05:31N 48°32' W 122°60'0 0.0
2014-Oct-20 04:31N 48°32' W 122°60'0 0.0
2014-Oct-20 03:31N 48°32' W 122°60'0 0.0
2014-Oct-20 02:31N 48°32' W 122°60'0 0.0
2014-Oct-20 01:31N 48°32' W 122°60'0 0.0
2014-Oct-20 00:31N 48°32' W 122°60'0 0.0
2014-Oct-19 23:31N 48°32' W 122°60'0 0.0
2014-Oct-19 22:31N 48°32' W 122°60'0 0.0
2014-Oct-19 21:31N 48°32' W 122°60'0 0.0
2014-Oct-19 20:31N 48°32' W 122°60'0 0.0
2014-Oct-19 19:31N 48°32' W 122°60'0 0.0
2014-Oct-19 18:31N 48°32' W 122°60'0 0.0
2014-Oct-19 17:31N 48°32' W 122°60'0 0.0
2014-Oct-19 16:31N 48°32' W 122°60'0 0.0
2014-Oct-19 15:31N 48°32' W 122°60'0 0.0
2014-Oct-19 14:13N 48°32' W 122°60'0 0.0
2014-Oct-19 13:28N 48°32' W 122°60'0 0.0
2014-Oct-19 12:31N 48°32' W 122°60'0 0.0
2014-Oct-19 11:31N 48°32' W 122°60'0 0.0
2014-Oct-19 10:28N 48°32' W 122°60'0 0.0
2014-Oct-19 09:31N 48°32' W 122°60'0 0.0
2014-Oct-19 08:31N 48°32' W 122°60'0 0.0
2014-Oct-19 07:31N 48°32' W 122°60'0 0.0
2014-Oct-19 06:31N 48°32' W 122°60'0 0.0
2014-Oct-19 05:31N 48°32' W 122°60'0 0.0
2014-Oct-19 04:31N 48°32' W 122°60'0 0.0
2014-Oct-19 03:31N 48°32' W 122°60'0 0.0
2014-Oct-19 02:31N 48°32' W 122°60'0 0.0
2014-Oct-19 01:31N 48°32' W 122°60'0 0.0
2014-Oct-19 00:31N 48°32' W 122°60'0 0.0
2014-Oct-18 23:31N 48°32' W 122°60'0 0.0
2014-Oct-18 22:28N 48°32' W 122°60'0 0.0
2014-Oct-18 21:31N 48°32' W 122°60'0 0.0
2014-Oct-18 20:31N 48°32' W 122°60'0 0.0
2014-Oct-18 19:31N 48°32' W 122°60'0 0.0
2014-Oct-18 18:31N 48°32' W 122°60'0 0.0
2014-Oct-18 17:31N 48°32' W 122°60'0 0.0
2014-Oct-18 16:31N 48°32' W 122°60'0 0.0
2014-Oct-18 15:31N 48°32' W 122°60'0 0.0
2014-Oct-18 14:31N 48°32' W 122°60'0 0.0
2014-Oct-18 13:31N 48°32' W 122°60'0 0.0
2014-Oct-18 12:31N 48°32' W 122°60'0 0.0
2014-Oct-18 11:31N 48°32' W 122°60'0 0.0
2014-Oct-18 10:31N 48°32' W 122°60'0 0.0
2014-Oct-18 09:31N 48°32' W 122°60'0 0.0
2014-Oct-18 08:31N 48°32' W 122°60'0 0.0
2014-Oct-18 07:31N 48°32' W 122°60'0 0.0
2014-Oct-18 06:31N 48°32' W 122°60'0 0.0
2014-Oct-18 05:31N 48°32' W 122°60'0 0.0
2014-Oct-18 04:31N 48°32' W 122°60'0 0.0
2014-Oct-18 03:31N 48°32' W 122°60'0 0.0
2014-Oct-18 02:31N 48°32' W 122°60'0 0.0
2014-Oct-18 01:31N 48°32' W 122°60'0 0.0
2014-Oct-18 00:31N 48°32' W 122°60'0 0.0
2014-Oct-17 23:31N 48°32' W 122°60'0 0.0
2014-Oct-17 22:32N 48°32' W 122°60'0 0.0
2014-Oct-17 21:32N 48°32' W 122°60'0 0.0
2014-Oct-17 20:32N 48°32' W 122°60'4 3.9
2014-Oct-17 19:33N 48°33' W 122°55'6 5.8
2014-Oct-17 18:29N 48°31' W 122°46'2 0.8
2014-Oct-17 16:22N 48°31' W 122°43'5 6.1
2014-Oct-17 15:33N 48°33' W 122°50'5 5.2
2014-Oct-17 14:33N 48°32' W 122°58'1 1.3
2014-Oct-17 13:32N 48°32' W 122°60'0 0.0
2014-Oct-17 12:32N 48°32' W 122°60'0 0.0
2014-Oct-17 11:32N 48°32' W 122°60'0 0.0
2014-Oct-17 10:32N 48°32' W 122°60'0 0.0
2014-Oct-17 09:32N 48°32' W 122°60'0 0.0
2014-Oct-17 08:32N 48°32' W 122°60'0 0.0
2014-Oct-17 07:32N 48°32' W 122°60'0 0.0
2014-Oct-17 06:32N 48°32' W 122°60'0 0.0
2014-Oct-17 05:32N 48°32' W 122°60'0 0.0
2014-Oct-17 04:32N 48°32' W 122°60'0 0.0
2014-Oct-17 03:32N 48°32' W 122°60'0 0.0
2014-Oct-17 02:32N 48°32' W 122°60'0 0.0
2014-Oct-17 01:32N 48°32' W 122°60'0 0.0
2014-Oct-17 00:31N 48°32' W 122°60'0 0.0
2014-Oct-16 23:31N 48°32' W 122°60'0 0.0
2014-Oct-16 22:33N 48°32' W 122°60'0 0.4
2014-Oct-16 21:32N 48°32' W 123°00'0 2.7
2014-Oct-16 21:23N 48°32' W 122°60'0 0.1
2014-Oct-16 20:32N 48°32' W 123°00'0 0.5
2014-Oct-16 20:18N 48°32' W 122°60'0 0.6
2014-Oct-16 19:33N 48°32' W 123°00'0 0.5
2014-Oct-16 18:37N 48°32' W 122°60'0 0.0
2014-Oct-16 18:31N 48°32' W 122°60'0 0.0
2014-Oct-16 17:28N 48°32' W 122°60'0 0.5
2014-Oct-16 16:32N 48°32' W 123°00'1 0.5
2014-Oct-16 15:33N 48°32' W 123°00'0 0.1
2014-Oct-16 14:32N 48°32' W 122°60'0 0.0
2014-Oct-16 13:29N 48°32' W 122°60'0 0.0
2014-Oct-16 12:32N 48°32' W 122°60'0 0.0
2014-Oct-16 11:29N 48°32' W 122°60'0 0.0
2014-Oct-16 10:32N 48°32' W 122°60'0 0.0
2014-Oct-16 09:32N 48°32' W 122°60'0 0.0
2014-Oct-16 08:32N 48°32' W 122°60'0 0.0
2014-Oct-16 07:32N 48°32' W 122°60'0 0.0
2014-Oct-16 06:32N 48°32' W 122°60'0 0.0
2014-Oct-16 05:29N 48°32' W 122°60'0 0.0
2014-Oct-16 04:32N 48°32' W 122°60'0 0.0
2014-Oct-16 03:32N 48°32' W 122°60'0 0.0
2014-Oct-16 02:32N 48°32' W 122°60'0 0.0
2014-Oct-16 01:32N 48°32' W 122°60'0 0.0
2014-Oct-16 00:33N 48°32' W 122°60'0 0.0
2014-Oct-15 23:33N 48°32' W 122°60'  
Track history (hours):
 
Tides and Currents Weather Stations Pressure Air Temp Water Temp Dewpoint Dewpoint Depression Visibility Wind Speed Wind Dir Waves Ship Positions

Pintail

Owner: Pintail Marine Services, Inc, Friday Harbor, WA. More information available from US FCC via Universal Licensing System and Coast Guard Vessel Documentation Center.

Last reported at 2014-Oct-25 23:31 UTC. Time now 2014-Oct-26 00:24 UTC.
Position N 48°32' W 122°60'.

Length 19 m.

Type: Towing. MMSI: 367460260.

Date/timePositionNaut miles runAvg speedWind from/ knotsBaromVisibWave heightAir tempDewpointWater temp
2014-Oct-25 23:31N 48°32' W 122°60'0 0.0
2014-Oct-25 22:31N 48°32' W 122°60'0 0.0
2014-Oct-25 21:31N 48°32' W 122°60'0 0.0
2014-Oct-25 20:31N 48°32' W 122°60'0 0.0
2014-Oct-25 19:31N 48°32' W 122°60'0 0.0
2014-Oct-25 18:31N 48°32' W 122°60'0 0.0
2014-Oct-25 17:31N 48°32' W 122°60'0 0.0
2014-Oct-25 16:31N 48°32' W 122°60'0 0.0
2014-Oct-25 15:31N 48°32' W 122°60'0 0.0
2014-Oct-25 14:31N 48°32' W 122°60'0 0.0
2014-Oct-25 13:31N 48°32' W 122°60'0 0.0
2014-Oct-25 12:28N 48°32' W 122°60'0 0.0
2014-Oct-25 11:31N 48°32' W 122°60'0 0.0
2014-Oct-25 10:31N 48°32' W 122°60'0 0.0
2014-Oct-25 09:31N 48°32' W 122°60'0 0.0
2014-Oct-25 08:31N 48°32' W 122°60'0 0.0
2014-Oct-25 07:31N 48°32' W 122°60'0 0.0
2014-Oct-25 06:31N 48°32' W 122°60'0 0.0
2014-Oct-25 05:31N 48°32' W 122°60'0 0.0
2014-Oct-25 04:28N 48°32' W 122°60'0 0.0
2014-Oct-25 03:31N 48°32' W 122°60'0 0.0
2014-Oct-25 02:28N 48°32' W 122°60'0 0.0
2014-Oct-25 01:31N 48°32' W 122°60'0 0.0
2014-Oct-25 00:31N 48°32' W 122°60'0 0.0
2014-Oct-24 23:31N 48°32' W 122°60'0 0.0
2014-Oct-24 22:31N 48°32' W 122°60'0 0.0
2014-Oct-24 21:31N 48°32' W 122°60'0 0.0
2014-Oct-24 20:31N 48°32' W 122°60'0 0.0
2014-Oct-24 19:31N 48°32' W 122°60'0 0.0
2014-Oct-24 18:31N 48°32' W 122°60'0 0.0
2014-Oct-24 17:31N 48°32' W 122°60'0 0.0
2014-Oct-24 16:31N 48°32' W 122°60'0 0.0
2014-Oct-24 15:31N 48°32' W 122°60'0 0.0
2014-Oct-24 14:31N 48°32' W 122°60'0 0.0
2014-Oct-24 13:33N 48°32' W 122°60'0 0.0
2014-Oct-24 12:33N 48°32' W 122°60'0 0.0
2014-Oct-24 11:33N 48°32' W 122°60'0 0.0
2014-Oct-24 10:33N 48°32' W 122°60'0 0.0
2014-Oct-24 09:33N 48°32' W 122°60'0 0.0
2014-Oct-24 08:34N 48°32' W 122°60'0 0.0
2014-Oct-24 07:25N 48°32' W 122°60'0 0.0
2014-Oct-24 06:33N 48°32' W 122°60'0 0.0
2014-Oct-24 05:33N 48°32' W 122°60'0 0.0
2014-Oct-24 04:33N 48°32' W 122°60'0 0.0
2014-Oct-24 03:33N 48°32' W 122°60'0 0.0
2014-Oct-24 02:33N 48°32' W 122°60'0 0.0
2014-Oct-24 01:33N 48°32' W 122°60'0 0.0
2014-Oct-24 00:33N 48°32' W 122°60'0 0.0
2014-Oct-23 23:33N 48°32' W 122°60'0 0.4
2014-Oct-23 22:31N 48°32' W 123°00'0 0.0
2014-Oct-23 21:31N 48°32' W 123°00'2 2.2
2014-Oct-23 20:33N 48°33' W 122°57'5 4.9
2014-Oct-23 19:32N 48°32' W 122°50'7 5.5
2014-Oct-23 18:12N 48°31' W 122°39'2 2.5
2014-Oct-23 17:31N 48°31' W 122°36'4 3.8
2014-Oct-23 16:28N 48°31' W 122°42'5 5.9
2014-Oct-23 15:32N 48°33' W 122°50'12 0.7
2014-Oct-22 22:04N 48°37' W 123°06'2 3.9
2014-Oct-22 21:32N 48°36' W 123°09'0 0.3
2014-Oct-22 20:33N 48°37' W 123°09'0 0.2
2014-Oct-22 19:33N 48°37' W 123°10'0 0.0
2014-Oct-22 18:33N 48°37' W 123°10'0 0.5
2014-Oct-22 17:31N 48°36' W 123°09'0 0.0
2014-Oct-22 16:33N 48°36' W 123°09'3 2.7
2014-Oct-22 15:30N 48°36' W 123°05'6 1.0
2014-Oct-22 09:31N 48°32' W 122°60'0 0.0
2014-Oct-22 08:31N 48°32' W 122°60'0 0.0
2014-Oct-22 07:31N 48°32' W 122°60'0 0.0
2014-Oct-22 06:31N 48°32' W 122°60'0 0.0
2014-Oct-22 05:32N 48°32' W 122°60'0 0.0
2014-Oct-22 04:32N 48°32' W 122°60'0 0.0
2014-Oct-22 03:32N 48°32' W 122°60'0 0.0
2014-Oct-22 02:32N 48°32' W 122°60'0 0.0
2014-Oct-22 01:32N 48°32' W 122°60'0 0.1
2014-Oct-22 00:31N 48°32' W 123°00'3 3.4
2014-Oct-21 23:33N 48°35' W 123°02'5 5.2
2014-Oct-21 22:32N 48°40' W 123°02'8 1.6
2014-Oct-21 17:33N 48°32' W 122°60'1 0.6
2014-Oct-21 16:32N 48°32' W 123°00'1 0.5
2014-Oct-21 15:33N 48°32' W 123°00'0 0.4
2014-Oct-21 14:28N 48°32' W 122°60'0 0.0
2014-Oct-21 13:28N 48°32' W 122°60'0 0.0
2014-Oct-21 12:28N 48°32' W 122°60'0 0.0
2014-Oct-21 11:28N 48°32' W 122°60'0 0.0
2014-Oct-21 10:31N 48°32' W 122°60'0 0.0
2014-Oct-21 09:31N 48°32' W 122°60'0 0.0
2014-Oct-21 08:31N 48°32' W 122°60'0 0.0
2014-Oct-21 07:31N 48°32' W 122°60'0 0.0
2014-Oct-21 06:31N 48°32' W 122°60'0 0.0
2014-Oct-21 05:31N 48°32' W 122°60'0 0.0
2014-Oct-21 04:31N 48°32' W 122°60'0 0.0
2014-Oct-21 03:28N 48°32' W 122°60'0 0.0
2014-Oct-21 02:31N 48°32' W 122°60'0 0.0
2014-Oct-21 01:28N 48°32' W 122°60'0 0.0
2014-Oct-21 00:31N 48°32' W 122°60'0 0.0
2014-Oct-20 23:31N 48°32' W 122°60'0 0.0
2014-Oct-20 22:33N 48°32' W 122°60'0 0.1
2014-Oct-20 21:34N 48°32' W 123°00'0 0.2
2014-Oct-20 20:33N 48°32' W 122°60'4 4.1
2014-Oct-20 19:33N 48°33' W 122°54'6 5.5
2014-Oct-20 18:33N 48°31' W 122°47'3 1.3
2014-Oct-20 16:17N 48°32' W 122°42'5 6.1
2014-Oct-20 15:31N 48°32' W 122°49'4 4.1
2014-Oct-20 14:33N 48°34' W 122°55'4 3.8
2014-Oct-20 13:31N 48°32' W 122°60'0 0.0
2014-Oct-20 12:31N 48°32' W 122°60'0 0.0
2014-Oct-20 11:31N 48°32' W 122°60'0 0.0
2014-Oct-20 10:31N 48°32' W 122°60'0 0.0
2014-Oct-20 09:31N 48°32' W 122°60'0 0.0
2014-Oct-20 08:31N 48°32' W 122°60'0 0.0
2014-Oct-20 07:31N 48°32' W 122°60'0 0.0
2014-Oct-20 06:31N 48°32' W 122°60'0 0.0
2014-Oct-20 05:31N 48°32' W 122°60'0 0.0
2014-Oct-20 04:31N 48°32' W 122°60'0 0.0
2014-Oct-20 03:31N 48°32' W 122°60'0 0.0
2014-Oct-20 02:31N 48°32' W 122°60'0 0.0
2014-Oct-20 01:31N 48°32' W 122°60'0 0.0
2014-Oct-20 00:31N 48°32' W 122°60'0 0.0
2014-Oct-19 23:31N 48°32' W 122°60'0 0.0
2014-Oct-19 22:31N 48°32' W 122°60'0 0.0
2014-Oct-19 21:31N 48°32' W 122°60'0 0.0
2014-Oct-19 20:31N 48°32' W 122°60'0 0.0
2014-Oct-19 19:31N 48°32' W 122°60'0 0.0
2014-Oct-19 18:31N 48°32' W 122°60'0 0.0
2014-Oct-19 17:31N 48°32' W 122°60'0 0.0
2014-Oct-19 16:31N 48°32' W 122°60'0 0.0
2014-Oct-19 15:31N 48°32' W 122°60'0 0.0
2014-Oct-19 14:13N 48°32' W 122°60'0 0.0
2014-Oct-19 13:28N 48°32' W 122°60'0 0.0
2014-Oct-19 12:31N 48°32' W 122°60'0 0.0
2014-Oct-19 11:31N 48°32' W 122°60'0 0.0
2014-Oct-19 10:28N 48°32' W 122°60'0 0.0
2014-Oct-19 09:31N 48°32' W 122°60'0 0.0
2014-Oct-19 08:31N 48°32' W 122°60'0 0.0
2014-Oct-19 07:31N 48°32' W 122°60'0 0.0
2014-Oct-19 06:31N 48°32' W 122°60'0 0.0
2014-Oct-19 05:31N 48°32' W 122°60'0 0.0
2014-Oct-19 04:31N 48°32' W 122°60'0 0.0
2014-Oct-19 03:31N 48°32' W 122°60'0 0.0
2014-Oct-19 02:31N 48°32' W 122°60'0 0.0
2014-Oct-19 01:31N 48°32' W 122°60'0 0.0
2014-Oct-19 00:31N 48°32' W 122°60'0 0.0
2014-Oct-18 23:31N 48°32' W 122°60'0 0.0
2014-Oct-18 22:28N 48°32' W 122°60'0 0.0
2014-Oct-18 21:31N 48°32' W 122°60'0 0.0
2014-Oct-18 20:31N 48°32' W 122°60'0 0.0
2014-Oct-18 19:31N 48°32' W 122°60'0 0.0
2014-Oct-18 18:31N 48°32' W 122°60'0 0.0
2014-Oct-18 17:31N 48°32' W 122°60'0 0.0
2014-Oct-18 16:31N 48°32' W 122°60'0 0.0
2014-Oct-18 15:31N 48°32' W 122°60'0 0.0
2014-Oct-18 14:31N 48°32' W 122°60'0 0.0
2014-Oct-18 13:31N 48°32' W 122°60'0 0.0
2014-Oct-18 12:31N 48°32' W 122°60'0 0.0
2014-Oct-18 11:31N 48°32' W 122°60'0 0.0
2014-Oct-18 10:31N 48°32' W 122°60'0 0.0
2014-Oct-18 09:31N 48°32' W 122°60'0 0.0
2014-Oct-18 08:31N 48°32' W 122°60'0 0.0
2014-Oct-18 07:31N 48°32' W 122°60'0 0.0
2014-Oct-18 06:31N 48°32' W 122°60'0 0.0
2014-Oct-18 05:31N 48°32' W 122°60'0 0.0
2014-Oct-18 04:31N 48°32' W 122°60'0 0.0
2014-Oct-18 03:31N 48°32' W 122°60'0 0.0
2014-Oct-18 02:31N 48°32' W 122°60'0 0.0
2014-Oct-18 01:31N 48°32' W 122°60'0 0.0
2014-Oct-18 00:31N 48°32' W 122°60'0 0.0
2014-Oct-17 23:31N 48°32' W 122°60'0 0.0
2014-Oct-17 22:32N 48°32' W 122°60'0 0.0
2014-Oct-17 21:32N 48°32' W 122°60'0 0.0
2014-Oct-17 20:32N 48°32' W 122°60'4 3.9
2014-Oct-17 19:33N 48°33' W 122°55'6 5.8
2014-Oct-17 18:29N 48°31' W 122°46'2 0.8
2014-Oct-17 16:22N 48°31' W 122°43'5 6.1
2014-Oct-17 15:33N 48°33' W 122°50'5 5.2
2014-Oct-17 14:33N 48°32' W 122°58'1 1.3
2014-Oct-17 13:32N 48°32' W 122°60'0 0.0
2014-Oct-17 12:32N 48°32' W 122°60'0 0.0
2014-Oct-17 11:32N 48°32' W 122°60'0 0.0
2014-Oct-17 10:32N 48°32' W 122°60'0 0.0
2014-Oct-17 09:32N 48°32' W 122°60'0 0.0
2014-Oct-17 08:32N 48°32' W 122°60'0 0.0
2014-Oct-17 07:32N 48°32' W 122°60'0 0.0
2014-Oct-17 06:32N 48°32' W 122°60'0 0.0
2014-Oct-17 05:32N 48°32' W 122°60'0 0.0
2014-Oct-17 04:32N 48°32' W 122°60'0 0.0
2014-Oct-17 03:32N 48°32' W 122°60'0 0.0
2014-Oct-17 02:32N 48°32' W 122°60'0 0.0
2014-Oct-17 01:32N 48°32' W 122°60'0 0.0
2014-Oct-17 00:31N 48°32' W 122°60'0 0.0
2014-Oct-16 23:31N 48°32' W 122°60'0 0.0
2014-Oct-16 22:33N 48°32' W 122°60'0 0.4
2014-Oct-16 21:32N 48°32' W 123°00'0 2.7
2014-Oct-16 21:23N 48°32' W 122°60'0 0.1
2014-Oct-16 20:32N 48°32' W 123°00'0 0.5
2014-Oct-16 20:18N 48°32' W 122°60'0 0.6
2014-Oct-16 19:33N 48°32' W 123°00'0 0.5
2014-Oct-16 18:37N 48°32' W 122°60'0 0.0
2014-Oct-16 18:31N 48°32' W 122°60'0 0.0
2014-Oct-16 17:28N 48°32' W 122°60'0 0.5
2014-Oct-16 16:32N 48°32' W 123°00'1 0.5
2014-Oct-16 15:33N 48°32' W 123°00'0 0.1
2014-Oct-16 14:32N 48°32' W 122°60'0 0.0
2014-Oct-16 13:29N 48°32' W 122°60'0 0.0
2014-Oct-16 12:32N 48°32' W 122°60'0 0.0
2014-Oct-16 11:29N 48°32' W 122°60'0 0.0
2014-Oct-16 10:32N 48°32' W 122°60'0 0.0
2014-Oct-16 09:32N 48°32' W 122°60'0 0.0
2014-Oct-16 08:32N 48°32' W 122°60'0 0.0
2014-Oct-16 07:32N 48°32' W 122°60'0 0.0
2014-Oct-16 06:32N 48°32' W 122°60'0 0.0
2014-Oct-16 05:29N 48°32' W 122°60'0 0.0
2014-Oct-16 04:32N 48°32' W 122°60'0 0.0
2014-Oct-16 03:32N 48°32' W 122°60'0 0.0
2014-Oct-16 02:32N 48°32' W 122°60'0 0.0
2014-Oct-16 01:32N 48°32' W 122°60'0 0.0
2014-Oct-16 00:33N 48°32' W 122°60'0 0.0
2014-Oct-15 23:33N 48°32' W 122°60'  

Dump ship's entire track history